CZ-6A DEB, 60654

Orbit data source: Space-Track

CZ-6A DEB, 60654 is space debris in LEO originally from a launch on Tue, 06 Aug 2024 UTC launched from the Taiyaun Space Center, China (TSC). Debris objects in space refer to the collection of defunct objects orbiting the Earth. Examples of debris include non-operational satellites, rocket bodies, and fragments generated from explosions, collisions, or faulty payload assembly.

Loading next visibility...
Identifier
60654, 2024-140BF
Orbit
LEO
Country
Flag of CNCN / PRC
Related business
Manufacturer
SAST
Mission
Spacecraft
Bus & Motor
Unknown
Mass
Unknown
Launch date (UTC)
2024-08-06 (1 year ago)
Launch vehicle
Unknown
Launch site
Taiyaun Space Center, China (TSC)
Object type
Payload
Rocket body
Debris
Shape & HBR
Unknown shape, 0.2 m
Radar Cross Section
Medium (>0.1 m² and <1 m²)

Expand to show TLE details & history
Last TLE update: 1 day ago

TLE from 1 day ago
0 CZ-6A DEB
1 60654U 24140BF  25312.71113789  .00018168  00000-0  25359-2 0  9992
2 60654  88.9748 294.3666 0148151 281.8756  76.5881 14.70246242 66920
Epoch: 2025-11-08T17:04Z
TLE epoch observation values (Epoch: 2025-11-08T17:04:02.313Z)
Latitude
-0.00009°
Longitude
-9.77987°
Altitude
640.685 km
Speed
7.55 km/s
True Right ascension
19h 37m 27s
True Declination
0° 00' 00"
Sunlit
Object was in daylight at epoch
Visualization orbit readout
Latitude
Unknown
Longitude
Unknown
Altitude
Unknown
Speed
Unknown
Apparent Right ascension
Unknown
Apparent Declination
Unknown
Sunlit
N/A
Visualization observer readout
Local Sidereal Time
19:52:06
Azimuth
Unknown
Elevation
Unknown
Doppler factor
Unknown
Orbital elements
Apogee altitude
761.389 km
Perigee altitude
552.932 km
Semi-major axis
7,035.298 km
Eccentricity
0.01482
Inclination
88.9748°
RAAN
294.3666°
Arg. of periapsis
281.8756°
True anomaly
78.24638°
Mean anomaly
76.5881°
Eccentric anomaly
77.41655°
Mean motion
3.67807 °/min
Orbital period
97.88 mins
BSTAR
0.0025359
Loading maneuver chart data...
Computing Atmospheric mass density...

Documentation

Showing up to 5 results
|